FW1641 Weather Reports


time (UTC)temp
F
wind
direction
speed
knots
gust
knots
rain 1hr
in
rain 24hr
in
rain mn
in
humidity
%
barometer
mb
20260504204606 83 124 0.0 2.6 0.00 0.00 0.00 33 1014.2
20260504203058 82 315 0.0 3.5 0.00 0.00 0.00 31 1014.4
20260504201551 82 121 0.0 1.7 0.00 0.00 0.00 30 1014.5
20260504200054 83 131 0.0 2.6 0.00 0.00 0.00 30 1014.6
20260504194555 83 143 0.0 2.6 0.00 0.00 0.00 32 1014.8
20260504193046 84 136 0.9 4.3 0.00 0.00 0.00 30 1014.9
20260504191554 83 284 0.0 2.6 0.00 0.00 0.00 30 1015.0
20260504190040 83 301 0.0 1.7 0.00 0.00 0.00 33 1015.3
20260504184537 81 297 0.0 2.6 0.00 0.00 0.00 34 1015.7
20260504183035 82 271 0.0 1.7 0.00 0.00 0.00 35 1015.8
20260504181533 81 275 0.0 1.7 0.00 0.00 0.00 36 1016.0
20260504180031 82 280 0.0 1.7 0.00 0.00 0.00 34 1016.2
20260504174528 79 278 0.0 2.6 0.00 0.00 0.00 38 1016.4
20260504173027 79 281 0.0 1.7 0.00 0.00 0.00 38 1016.7
20260504171531 78 282 0.0 1.7 0.00 0.00 0.00 39 1016.9
20260504081506 48 259 0.0 0.0 0.00 0.00 0.00 82 1017.8
20260504070151 50 260 0.0 0.9 0.00 0.00 0.00 77 1018.4
20260504044526 55 259 0.0 0.9 0.00 0.00 0.00 65 1018.5
20260504043032 56 260 0.0 0.9 0.00 0.00 0.00 63 1018.6
20260504041522 57 259 0.0 0.0 0.00 0.00 0.00 60 1018.7
20260504040015 58 260 0.0 0.0 0.00 0.00 0.00 57 1018.8
20260504034515 58 259 0.0 0.0 0.00 0.00 0.00 56 1018.9
20260504033014 58 259 0.0 0.9 0.00 0.00 0.00 56 1018.8
20260504031514 58 260 0.0 0.9 0.00 0.00 0.00 55 1018.6
20260504030016 59 259 0.0 0.0 0.00 0.00 0.00 54 1018.7
20260504024514 60 260 0.0 0.9 0.00 0.00 0.00 53 1018.6
20260504023011 60 259 0.0 0.9 0.00 0.00 0.00 50 1018.5
20260504021514 60 260 0.0 0.0 0.00 0.00 0.00 49 1018.2
20260504020010 61 260 0.0 0.9 0.00 0.00 0.00 49 1018.1
20260504014510 62 259 0.0 0.9 0.00 0.00 0.00 47 1017.9
20260504013009 62 260 0.0 0.9 0.00 0.00 0.00 46 1017.8
20260504011517 62 259 0.0 0.0 0.00 0.00 0.00 44 1017.6
20260504010007 63 260 0.0 0.9 0.00 0.00 0.00 43 1017.5
20260504004508 64 260 0.0 0.0 0.00 0.00 0.00 42 1017.4
20260504003007 64 259 0.0 1.7 0.00 0.00 0.00 43 1017.2
20260504001506 65 260 0.0 0.0 0.00 0.00 0.00 43 1017.1
20260504000006 66 260 0.0 0.0 0.00 0.00 0.00 41 1017.0
20260503234506 67 260 0.0 0.9 0.00 0.00 0.00 40 1016.9
20260503233004 68 260 0.0 1.7 0.00 0.00 0.00 38 1016.9
20260503231504 69 259 0.0 0.9 0.00 0.00 0.00 37 1017.0
20260503230004 70 260 0.0 1.7 0.00 0.00 0.00 36 1017.0
20260503224504 71 260 0.0 1.7 0.00 0.00 0.00 33 1017.0
20260503223002 73 259 0.0 2.6 0.00 0.00 0.00 31 1017.0
20260503221501 75 257 0.0 2.6 0.00 0.00 0.00 32 1017.0
20260503220001 77 263 0.0 1.7 0.00 0.00 0.00 30 1017.1
20260503214559 76 264 0.0 2.6 0.00 0.00 0.00 31 1017.1
20260503213059 75 284 0.0 3.5 0.00 0.00 0.00 32 1017.3
20260503211557 77 269 0.0 1.7 0.00 0.00 0.00 30 1017.4
20260503210155 75 269 0.0 2.6 0.00 0.00 0.00 31 1017.5